Chicago DuPage, IL

3:11 AM CDT on May 26, 2017 (GMT -0500)
Du Page

Weather History for KDPA - March, 2013

Change the Weather History Date:

Sunday, March 31, 2013

  Actual Average Record
Temperature  
Mean Temperature 46 °F 44 °F  
Max Temperature 59 °F 55 °F 78 °F (2010)
Min Temperature 33 °F 33 °F 19 °F (2011)
Degree Days  
Heating Degree Days 19 21  
Month to date heating degree days 1056 835  
Since 1 July heating degree days 5784 5591  
Cooling Degree Days 0 0  
Month to date cooling degree days 0 0  
Year to date cooling degree days 0 0  
Moisture  
Dew Point 37 °F    
Average Humidity 77    
Maximum Humidity 96    
Minimum Humidity 44    
Precipitation  
Precipitation T in 0.09 in 1.05 in (1998)
Month to date precipitation 1.56 2.36  
Year to date precipitation 6.96 5.09  
Sea Level Pressure  
Sea Level Pressure 29.79 in    
Wind  
Wind Speed 14 mph (West)    
Max Wind Speed 28 mph    
Max Gust Speed 36 mph    
Visibility 7 miles    
Events Rain    
T = Trace of Precipitation, MM = Missing Value Source: NWS Daily Summary

Daily Weather History Graph

Daily Weather History Graph

Search for Another Location

Airport or City:

Trip Planner

Search our weather history database for the weather conditions in past years. The results will help you decide how hot, cold, wet, or windy it might be!

Date:

Astronomy

Mar. 31, 2013 Rise Set
Actual Time 6:37 AM CDT 7:17 PM CDT
Civil Twilight 6:08 AM CDT 7:45 PM CDT
Nautical Twilight 5:35 AM CDT 8:19 PM CDT
Astronomical Twilight 5:01 AM CDT 8:53 PM CDT
Moon No Moon Rise 9:20 AM CDT (3/31)
Length of Visible Light 13h 36m
Length of Day
12h 40m
Waning Gibbous, 77% of the Moon is Illuminated
Mar 31
Waning Gibbous
Apr 2
Last Quarter
Apr 10
New
Apr 18
First Quarter
Apr 25
Full

Hourly Weather History & Observations

Time (CDT) Temp. Windchill Dew Point Humidity Pressure Visibility Wind Dir Wind Speed Gust Speed Precip Events Conditions
12:52 AM 46.9 °F - 42.1 °F 83% 29.83 in 5.0 mi WSW 8.1 mph - 0.00 in Rain Light Rain
1:03 AM 46.4 °F 43.5 °F 42.8 °F 87% 29.82 in 3.0 mi SW 5.8 mph - 0.00 in Rain Light Rain
1:52 AM 46.0 °F 41.4 °F 42.1 °F 86% 29.81 in 3.0 mi WSW 9.2 mph - 0.00 in   Overcast
2:08 AM 44.6 °F 39.7 °F 42.8 °F 93% 29.80 in 5.0 mi WSW 9.2 mph - N/A   Overcast
2:23 AM 44.6 °F 38.8 °F 42.8 °F 93% 29.79 in 3.0 mi WSW 11.5 mph - N/A   Overcast
2:34 AM 44.6 °F 39.7 °F 42.8 °F 93% 29.79 in 2.5 mi WSW 9.2 mph - N/A   Overcast
2:52 AM 44.1 °F 39.0 °F 43.0 °F 96% 29.79 in 2.5 mi WSW 9.2 mph - N/A   Overcast
3:41 AM 44.6 °F 39.7 °F 42.8 °F 93% 29.78 in 3.0 mi West 9.2 mph - N/A   Overcast
3:52 AM 44.1 °F 40.8 °F 43.0 °F 96% 29.78 in 3.0 mi West 5.8 mph - N/A   Overcast
4:52 AM 44.1 °F 38.1 °F 42.1 °F 93% 29.78 in 5.0 mi WNW 11.5 mph - N/A   Overcast
5:19 AM 44.6 °F 39.7 °F 41.0 °F 87% 29.77 in 6.0 mi West 9.2 mph - N/A   Overcast
5:52 AM 42.1 °F 36.6 °F 39.9 °F 92% 29.78 in 7.0 mi West 9.2 mph - N/A   Overcast
6:09 AM 41.0 °F 35.2 °F 39.2 °F 93% 29.77 in 7.0 mi WNW 9.2 mph - N/A   Scattered Clouds
6:52 AM 39.0 °F 31.8 °F 37.0 °F 93% 29.80 in 5.0 mi West 11.5 mph - N/A   Clear
7:28 AM 39.2 °F 31.6 °F 37.4 °F 93% 29.78 in 5.0 mi NW 12.7 mph 17.3 mph N/A   Scattered Clouds
7:37 AM 39.2 °F 31.6 °F 37.4 °F 93% 29.79 in 5.0 mi WNW 12.7 mph - N/A   Mostly Cloudy
7:52 AM 39.9 °F 33.9 °F 37.0 °F 89% 29.80 in 4.0 mi WNW 9.2 mph - N/A   Overcast
8:52 AM 39.9 °F 32.9 °F 37.0 °F 89% 29.80 in 4.0 mi West 11.5 mph - N/A   Overcast
9:52 AM 42.1 °F 35.7 °F 37.9 °F 85% 29.80 in 5.0 mi West 11.5 mph - N/A   Overcast
10:16 AM 42.8 °F 36.6 °F 37.4 °F 81% 29.78 in 6.0 mi West 11.5 mph - N/A   Haze
10:41 AM 46.4 °F 41.9 °F 39.2 °F 76% 29.78 in 7.0 mi WSW 9.2 mph - N/A   Scattered Clouds
10:52 AM 46.9 °F - 39.0 °F 74% 29.78 in 7.0 mi WSW 10.4 mph - N/A   Partly Cloudy
11:52 AM 52.0 °F - 39.0 °F 61% 29.77 in 10.0 mi West 13.8 mph 20.7 mph N/A   Clear
12:52 PM 55.9 °F - 37.9 °F 51% 29.74 in 10.0 mi West 18.4 mph 25.3 mph N/A   Scattered Clouds
1:52 PM 55.9 °F - 37.0 °F 49% 29.73 in 10.0 mi West 21.9 mph 27.6 mph N/A   Scattered Clouds
2:52 PM 55.9 °F - 34.0 °F 44% 29.73 in 10.0 mi West 23.0 mph 34.5 mph N/A   Partly Cloudy
3:52 PM 55.9 °F - 35.1 °F 45% 29.73 in 10.0 mi West 21.9 mph 28.8 mph N/A   Mostly Cloudy
4:52 PM 52.0 °F - 35.1 °F 53% 29.75 in 10.0 mi WNW 21.9 mph 28.8 mph N/A   Clear
5:52 PM 46.9 °F - 30.9 °F 54% 29.79 in 10.0 mi WNW 21.9 mph 28.8 mph N/A   Clear
6:52 PM 45.0 °F 38.9 °F 30.9 °F 58% 29.80 in 10.0 mi WNW 12.7 mph 21.9 mph N/A   Scattered Clouds
7:52 PM 39.9 °F 30.2 °F 26.1 °F 58% 29.84 in 10.0 mi NW 20.7 mph 28.8 mph N/A   Scattered Clouds
8:52 PM 37.9 °F 29.2 °F 27.0 °F 65% 29.86 in 10.0 mi WNW 15.0 mph 18.4 mph N/A   Clear
9:52 PM 37.0 °F 28.1 °F 27.0 °F 67% 29.88 in 10.0 mi WNW 15.0 mph - N/A   Clear
10:52 PM 37.0 °F 28.5 °F 26.1 °F 65% 29.89 in 10.0 mi WNW 13.8 mph - N/A   Clear
11:52 PM 34.0 °F 27.2 °F 26.1 °F 73% 29.90 in 10.0 mi NW 8.1 mph - N/A   Clear